timestamp,wind_dir_avg,wind_spd_max_dir,wind_spd_avg,wind_spd_gust,battery_voltage,lat,long
2017-12-28 00:00:00+00:00,267.0,266.0,18.47,24.09,,47.59359,-54.27349
2017-12-28 00:10:00+00:00,267.0,268.0,22.28,34.41,,47.59359,-54.27349
2017-12-28 00:20:00+00:00,263.0,260.0,18.03,20.88,,47.59359,-54.27349
2017-12-28 00:30:00+00:00,266.0,268.0,18.18,22.16,,47.59359,-54.27349
2017-12-28 00:40:00+00:00,267.0,261.0,19.42,24.37,,47.59359,-54.27349
2017-12-28 00:50:00+00:00,266.0,263.0,17.69,20.89,,47.59359,-54.27349
2017-12-28 01:00:00+00:00,253.0,256.0,15.46,18.45,,47.59359,-54.27349
2017-12-28 01:10:00+00:00,264.0,264.0,17.71,21.67,,47.59359,-54.27349
2017-12-28 01:20:00+00:00,252.0,245.0,17.4,20.58,,47.59359,-54.27349
2017-12-28 01:30:00+00:00,262.0,262.0,16.79,21.86,,47.59359,-54.27349
2017-12-28 01:40:00+00:00,254.0,250.0,19.91,24.94,,47.59359,-54.27349
2017-12-28 01:50:00+00:00,248.0,249.0,18.52,22.82,,47.59359,-54.27349
2017-12-28 02:00:00+00:00,257.0,259.0,17.91,21.08,,47.59359,-54.27349
2017-12-28 02:10:00+00:00,258.0,262.0,14.61,21.32,,47.59359,-54.27349
2017-12-28 02:20:00+00:00,265.0,274.0,15.61,18.76,,47.59359,-54.27349
2017-12-28 02:30:00+00:00,268.0,272.0,17.94,20.15,,47.59359,-54.27349
2017-12-28 02:40:00+00:00,261.0,272.0,15.44,19.23,,47.59359,-54.27349
2017-12-28 02:50:00+00:00,263.0,258.0,16.61,20.02,,47.59359,-54.27349
2017-12-28 03:00:00+00:00,271.0,275.0,18.24,22.23,,47.59359,-54.27349
2017-12-28 03:10:00+00:00,260.0,260.0,16.69,20.06,,47.59359,-54.27349
2017-12-28 03:20:00+00:00,269.0,271.0,16.95,19.92,,47.59359,-54.27349
2017-12-28 03:30:00+00:00,268.0,266.0,18.51,20.86,,47.59359,-54.27349
2017-12-28 03:40:00+00:00,272.0,270.0,18.33,22.11,,47.59359,-54.27349
2017-12-28 03:50:00+00:00,260.0,261.0,16.86,19.73,,47.59359,-54.27349
2017-12-28 04:00:00+00:00,263.0,255.0,15.11,17.23,,47.59359,-54.27349
2017-12-28 04:10:00+00:00,258.0,244.0,16.33,20.12,,47.59359,-54.27349
2017-12-28 04:20:00+00:00,257.0,259.0,16.92,22.18,,47.59359,-54.27349
2017-12-28 04:30:00+00:00,267.0,266.0,19.28,22.95,,47.59359,-54.27349
2017-12-28 04:40:00+00:00,266.0,267.0,18.52,22.05,,47.59359,-54.27349
2017-12-28 04:50:00+00:00,266.0,267.0,16.99,21.69,,47.59359,-54.27349
2017-12-28 05:00:00+00:00,267.0,265.0,16.48,20.46,,47.59359,-54.27349
2017-12-28 05:10:00+00:00,267.0,269.0,18.1,22.03,,47.59359,-54.27349
2017-12-28 05:20:00+00:00,260.0,248.0,18.42,21.0,,47.59359,-54.27349
2017-12-28 05:30:00+00:00,259.0,264.0,18.21,21.26,,47.59359,-54.27349
2017-12-28 05:40:00+00:00,262.0,243.0,14.62,18.74,,47.59359,-54.27349
2017-12-28 05:50:00+00:00,263.0,269.0,16.79,20.43,,47.59359,-54.27349
2017-12-28 06:00:00+00:00,258.0,267.0,14.59,16.9,,47.59359,-54.27349
2017-12-28 06:10:00+00:00,261.0,257.0,15.42,18.82,,47.59359,-54.27349
2017-12-28 06:20:00+00:00,262.0,271.0,15.24,18.16,,47.59359,-54.27349
2017-12-28 06:30:00+00:00,257.0,260.0,14.45,17.21,,47.59359,-54.27349
2017-12-28 06:40:00+00:00,262.0,254.0,15.46,17.76,,47.59359,-54.27349
2017-12-28 06:50:00+00:00,258.0,255.0,12.49,14.68,,47.59359,-54.27349
2017-12-28 07:00:00+00:00,266.0,268.0,14.69,17.45,,47.59359,-54.27349
2017-12-28 07:10:00+00:00,264.0,270.0,14.32,16.89,,47.59359,-54.27349
2017-12-28 07:20:00+00:00,262.0,267.0,14.46,16.72,,47.59359,-54.27349
2017-12-28 07:30:00+00:00,265.0,270.0,16.35,18.8,,47.59359,-54.27349
2017-12-28 07:40:00+00:00,263.0,270.0,15.82,18.07,,47.59359,-54.27349
2017-12-28 07:50:00+00:00,271.0,268.0,16.06,18.37,,47.59359,-54.27349
2017-12-28 08:00:00+00:00,272.0,272.0,15.8,18.5,,47.59359,-54.27349
2017-12-28 08:10:00+00:00,279.0,285.0,16.23,18.09,,47.59359,-54.27349
2017-12-28 08:20:00+00:00,269.0,264.0,16.41,18.64,,47.59359,-54.27349
2017-12-28 08:30:00+00:00,267.0,269.0,17.12,19.66,,47.59359,-54.27349
2017-12-28 08:40:00+00:00,275.0,277.0,15.15,17.55,,47.59359,-54.27349
2017-12-28 08:50:00+00:00,260.0,256.0,15.3,17.98,,47.59359,-54.27349
2017-12-28 09:00:00+00:00,270.0,269.0,13.3,16.15,,47.59359,-54.27349
2017-12-28 09:10:00+00:00,263.0,260.0,16.42,19.56,,47.59359,-54.27349
2017-12-28 09:20:00+00:00,269.0,275.0,14.94,17.83,,47.59359,-54.27349
2017-12-28 09:30:00+00:00,265.0,267.0,15.94,19.98,,47.59359,-54.27349
2017-12-28 09:40:00+00:00,264.0,264.0,15.06,17.73,,47.59359,-54.27349
2017-12-28 09:50:00+00:00,265.0,262.0,14.09,16.7,,47.59359,-54.27349
2017-12-28 10:00:00+00:00,270.0,259.0,13.2,16.43,,47.59359,-54.27349
2017-12-28 10:10:00+00:00,263.0,267.0,14.23,16.82,,47.59359,-54.27349
2017-12-28 10:20:00+00:00,256.0,251.0,13.38,15.34,,47.59359,-54.27349
2017-12-28 10:30:00+00:00,261.0,265.0,13.77,19.15,,47.59359,-54.27349
2017-12-28 10:40:00+00:00,268.0,271.0,12.53,16.38,,47.59359,-54.27349
2017-12-28 10:50:00+00:00,262.0,263.0,14.01,15.87,,47.59359,-54.27349
2017-12-28 11:00:00+00:00,264.0,270.0,14.25,16.86,,47.59359,-54.27349
2017-12-28 11:10:00+00:00,262.0,259.0,13.47,15.72,,47.59359,-54.27349
2017-12-28 11:20:00+00:00,255.0,246.0,14.16,17.38,,47.59359,-54.27349
2017-12-28 11:30:00+00:00,262.0,262.0,13.2,15.72,,47.59359,-54.27349
2017-12-28 11:40:00+00:00,252.0,249.0,14.37,16.63,,47.59359,-54.27349
2017-12-28 11:50:00+00:00,260.0,258.0,12.89,15.14,,47.59359,-54.27349
2017-12-28 12:00:00+00:00,261.0,263.0,12.84,14.58,,47.59359,-54.27349
2017-12-28 12:10:00+00:00,258.0,260.0,13.64,15.89,,47.59359,-54.27349
2017-12-28 12:20:00+00:00,255.0,257.0,13.54,14.88,,47.59359,-54.27349
2017-12-28 12:30:00+00:00,257.0,257.0,14.21,16.61,,47.59359,-54.27349
2017-12-28 12:40:00+00:00,255.0,252.0,13.5,16.27,,47.59359,-54.27349
2017-12-28 12:50:00+00:00,263.0,265.0,13.13,15.58,,47.59359,-54.27349
2017-12-28 13:00:00+00:00,257.0,263.0,15.59,17.93,,47.59359,-54.27349
2017-12-28 13:10:00+00:00,262.0,255.0,14.14,16.62,,47.59359,-54.27349
2017-12-28 13:20:00+00:00,260.0,266.0,12.54,15.44,,47.59359,-54.27349
2017-12-28 13:30:00+00:00,259.0,264.0,12.58,14.95,,47.59359,-54.27349
2017-12-28 13:40:00+00:00,262.0,262.0,13.87,15.86,,47.59359,-54.27349
2017-12-28 13:50:00+00:00,262.0,264.0,12.53,14.4,,47.59359,-54.27349
2017-12-28 14:00:00+00:00,270.0,268.0,12.59,13.95,,47.59359,-54.27349
2017-12-28 14:10:00+00:00,261.0,257.0,11.59,13.94,,47.59359,-54.27349
2017-12-28 14:20:00+00:00,257.0,253.0,14.18,16.27,,47.59359,-54.27349
2017-12-28 14:30:00+00:00,263.0,255.0,13.52,16.21,,47.59359,-54.27349
2017-12-28 14:40:00+00:00,261.0,261.0,12.62,15.58,,47.59359,-54.27349
2017-12-28 14:50:00+00:00,272.0,271.0,12.66,14.17,,47.59359,-54.27349
2017-12-28 15:00:00+00:00,262.0,259.0,12.83,14.84,,47.59359,-54.27349
2017-12-28 15:10:00+00:00,262.0,261.0,11.91,14.1,,47.59359,-54.27349
2017-12-28 15:20:00+00:00,259.0,252.0,11.53,15.49,,47.59359,-54.27349
2017-12-28 15:30:00+00:00,256.0,256.0,12.83,14.87,,47.59359,-54.27349
2017-12-28 15:40:00+00:00,261.0,264.0,12.96,14.48,,47.59359,-54.27349
2017-12-28 15:50:00+00:00,265.0,268.0,12.07,14.09,,47.59359,-54.27349
2017-12-28 16:00:00+00:00,257.0,261.0,12.74,14.99,,47.59359,-54.27349
2017-12-28 16:10:00+00:00,253.0,250.0,11.82,13.28,,47.59359,-54.27349
2017-12-28 16:20:00+00:00,255.0,261.0,11.83,13.15,,47.59359,-54.27349
2017-12-28 16:30:00+00:00,261.0,259.0,11.07,12.88,,47.59359,-54.27349
2017-12-28 16:40:00+00:00,256.0,254.0,11.67,13.74,,47.59359,-54.27349
2017-12-28 16:50:00+00:00,268.0,258.0,11.62,13.94,,47.59359,-54.27349
2017-12-28 17:00:00+00:00,261.0,264.0,12.73,14.14,,47.59359,-54.27349
2017-12-28 17:10:00+00:00,260.0,263.0,11.75,14.24,,47.59359,-54.27349
2017-12-28 17:20:00+00:00,263.0,259.0,11.38,12.6,,47.59359,-54.27349
2017-12-28 17:30:00+00:00,265.0,261.0,11.38,12.73,,47.59359,-54.27349
2017-12-28 17:40:00+00:00,265.0,260.0,12.27,13.58,,47.59359,-54.27349
2017-12-28 17:50:00+00:00,263.0,260.0,12.22,14.07,,47.59359,-54.27349
2017-12-28 18:00:00+00:00,268.0,270.0,12.14,14.71,,47.59359,-54.27349
2017-12-28 18:10:00+00:00,266.0,268.0,10.92,12.98,,47.59359,-54.27349
2017-12-28 18:20:00+00:00,258.0,255.0,12.15,13.75,,47.59359,-54.27349
2017-12-28 18:30:00+00:00,269.0,270.0,12.67,14.95,,47.59359,-54.27349
2017-12-28 18:40:00+00:00,267.0,266.0,13.17,14.72,,47.59359,-54.27349
2017-12-28 18:50:00+00:00,270.0,271.0,11.42,13.88,,47.59359,-54.27349
2017-12-28 19:00:00+00:00,270.0,266.0,11.06,13.2,,47.59359,-54.27349
2017-12-28 19:10:00+00:00,264.0,262.0,11.93,14.48,,47.59359,-54.27349
2017-12-28 19:20:00+00:00,267.0,265.0,9.79,12.01,,47.59359,-54.27349
2017-12-28 19:30:00+00:00,273.0,272.0,10.68,12.38,,47.59359,-54.27349
2017-12-28 19:40:00+00:00,279.0,273.0,9.3,11.12,,47.59359,-54.27349
2017-12-28 19:50:00+00:00,283.0,280.0,9.23,11.29,,47.59359,-54.27349
2017-12-28 20:00:00+00:00,278.0,274.0,11.19,13.39,,47.59359,-54.27349
2017-12-28 20:10:00+00:00,289.0,299.0,11.03,12.83,,47.59359,-54.27349
2017-12-28 20:20:00+00:00,290.0,284.0,9.59,11.4,,47.59359,-54.27349
2017-12-28 20:30:00+00:00,288.0,291.0,9.38,11.37,,47.59359,-54.27349
2017-12-28 20:40:00+00:00,287.0,285.0,10.95,13.66,,47.59359,-54.27349
2017-12-28 20:50:00+00:00,290.0,293.0,9.54,11.92,,47.59359,-54.27349
2017-12-28 21:00:00+00:00,288.0,285.0,10.86,12.81,,47.59359,-54.27349
2017-12-28 21:10:00+00:00,292.0,296.0,10.62,12.96,,47.59359,-54.27349
2017-12-28 21:20:00+00:00,292.0,303.0,9.33,10.88,,47.59359,-54.27349
2017-12-28 21:30:00+00:00,284.0,287.0,10.1,11.79,,47.59359,-54.27349
2017-12-28 21:40:00+00:00,298.0,298.0,9.54,11.39,,47.59359,-54.27349
2017-12-28 21:50:00+00:00,296.0,295.0,9.73,10.74,,47.59359,-54.27349
2017-12-28 22:00:00+00:00,294.0,292.0,10.37,12.15,,47.59359,-54.27349
2017-12-28 22:10:00+00:00,298.0,298.0,9.82,11.7,,47.59359,-54.27349
2017-12-28 22:20:00+00:00,293.0,300.0,9.0,11.88,,47.59359,-54.27349
2017-12-28 22:30:00+00:00,297.0,298.0,9.64,10.96,,47.59359,-54.27349
2017-12-28 22:40:00+00:00,294.0,295.0,9.82,11.51,,47.59359,-54.27349
2017-12-28 22:50:00+00:00,286.0,283.0,8.84,10.5,,47.59359,-54.27349
2017-12-28 23:00:00+00:00,278.0,288.0,9.83,11.51,,47.59359,-54.27349
2017-12-28 23:10:00+00:00,285.0,290.0,8.78,10.62,,47.59359,-54.27349
2017-12-28 23:20:00+00:00,283.0,283.0,9.51,10.65,,47.59359,-54.27349
2017-12-28 23:30:00+00:00,290.0,294.0,8.59,9.92,,47.59359,-54.27349
2017-12-28 23:40:00+00:00,295.0,298.0,8.71,9.71,,47.59359,-54.27349
2017-12-28 23:50:00+00:00,282.0,274.0,7.93,8.95,,47.59359,-54.27349
